Location: Katowice
(50.2611°N, 19.0242°E)
Time: 08:32:08
(UTC+02:00)

A-11 Canister half - Pass Details

Date: 24 July 2019
Orbit: 1526 x 1683 km, 47.3° (Epoch: 23 August)

Event Time Altitude Azimuth Distance (km) Brightness Sun altitude
Rises 21:02:26 0° 234° (SW) 4,920 11.9 -3.8°
Reaches altitude 10° 21:05:41 10° 231° (SW) 3,924 11.3 -4.3°
Maximum altitude 21:15:26 58° 156° (SSE) 1,868 9.2 -5.5°
Drops below altitude 10° 21:24:56 10° 81° (E) 3,828 10.7 -6.6°
Sets 21:28:02 0° 77° (ENE) 4,793 11.3 -7.0°
